Regional Weather Roundup
Issued by NWS

Home | Current Version | Previous Version | Text Only | Print | Product List | Glossary Off
Versions: 1 2 3 4 5 6 7 8 9 10 11 12 13 14 15 16 17 18 19 20 21 22 23 24 25 26 27 28 29 30 31 32 33 34 35 36 37 38 39 40 41 42 43 44 45 46 47 48 49 50

000
ASUS43 KIND 010809
RWRIN

WEATHER ROUNDUP FOR INDIANA
NATIONAL WEATHER SERVICE INDIANAPOLIS IN
300 AM EST WED MAR 01 2017

NOTE: "FAIR" INDICATES FEW OR NO CLOUDS BELOW 12,000 FEET WITH NO
SIGNIFICANT WEATHER AND/OR OBSTRUCTIONS TO VISIBILITY.

* - STATION DOES NOT REPORT WEATHER SUCH AS PRECIPITATION OR FOG.

+ - STATION NOT QUALITY CONTROLLED BY THE NATIONAL WEATHER SERVICE.
    USE DATA WITH CAUTION...ESPECIALLY DEWPOINT AND RELATIVE
    HUMIDITY OBSERVATIONS.

INZ001>003-010>013-019-020-010900-
NORTHWEST INDIANA

CITY           SKY/WX    TMP DP  RH WIND       PRES   REMARKS
GARY /AIRPORT/ CLOUDY    55  54  98 S5        29.47S
KNOX *+        CLOUDY    52  45  76 S13       29.48F
LA PORTE +     LGT RAIN  50  49  97 S8        29.50R
MICHIGAN CITY+ CLOUDY    50  50 100 S6        29.48R
MONTICELLO +   LGT RAIN  53  51  94 SW14      29.54F
RENSSELAER +   LGT RAIN  52  52 100 SW12      29.51S
VALPARAISO     CLOUDY    54  53  97 S9        29.50R

$$

LMZ046-743>745-010900-
SOUTHERN LAKE MICHIGAN

STATION/POSITION TIME  TEMP    WIND        PRES    WAVE
                       AIR SEA DIR/SP/G            HT
                 (UTC) (F)     (DEG/KT/KT) (MB)    (FT)
BURNS HARBOR     0740   52     180/  9/ 11  998.6S
MICHIGAN CITY    0740   52     150/ 11/ 14   N/A

$$

INZ004-005-014>016-021>024-010900-
NORTH CENTRAL INDIANA

CITY           SKY/WX    TMP DP  RH WIND       PRES   REMARKS
GOSHEN         RAIN      48  46  93 E8          N/A  FOG
LOGANSPORT +   RAIN      52  50  93 SW12      29.56R
PERU/GRISSOM   TSTM      54  54 100 W14       29.56R FOG
ROCHESTER +    TSTM      52  52 100 SW8       29.56F
SOUTH BEND     LGT RAIN  50  50 100 S12       29.49F
WARSAW +       LGT RAIN  48  48 100 CALM      29.53F

$$

INZ006>009-017-018-025>027-010900-
NORTHEAST INDIANA

CITY           SKY/WX    TMP DP  RH WIND       PRES   REMARKS
ANGOLA *+        N/A     48  46  93 VRB3      29.56R
AUBURN +       RAIN      50  46  87 W16G25    29.56R
FORT WAYNE     TSTM      51  47  86 NW18G51   29.53R FOG
HUNTINGTON +   RAIN      52  48  87 NW18G29   29.57R
KENDALLVILLE + RAIN      47  46  99 NW7G17    29.48R

$$

INZ028-029-035-036-043>045-051>053-010900-
WEST CENTRAL INDIANA

CITY           SKY/WX    TMP DP  RH WIND       PRES   REMARKS
GREENCASTLE +  FAIR      63  59  88 SW8G21    29.54F
LAFAYETTE      LGT RAIN  53  52  96 W7        29.55F
TERRE HAUTE    LGT RAIN  58  50  75 NW29G41   29.60R

$$

INZ030>032-037>040-046>048-054>057-064-065-010900-
CENTRAL INDIANA

CITY           SKY/WX    TMP DP  RH WIND       PRES   REMARKS
CP ATTERBURY + CLOUDY    63  57  82 SW14      29.59F
FRANKFORT +    RAIN      56  53  91 W18G25    29.59R
GREENWOOD *+   CLOUDY    62  59  91 SW10      29.57F
INDIANAPOLIS   CLOUDY    62  58  86 S20G26    29.54F
-EAGLE CREEK   CLOUDY    63  58  83 SW15G22   29.54F
KOKOMO +       TSTM      54  52  94 W23G33    29.58R FOG
MARION +       CLOUDY    59  56  89 SW23G30   29.50F
MT COMFORT *+  MOCLDY    61  57  88 S13       29.55F
SHELBYVILLE    CLOUDY    62  56  80 S16       29.56F
ZIONSVILLE +   CLOUDY    62  58  88 SW20G30   29.52F

$$

INZ033-034-041-042-049-050-058-059-010900-
EAST CENTRAL INDIANA

CITY           SKY/WX    TMP DP  RH WIND       PRES   REMARKS
MUNCIE         CLOUDY    64  56  75 SW18G28   29.52F

$$

INZ060-061-067>069-081>083-085>088-010900-
SOUTHWEST INDIANA

CITY           SKY/WX    TMP DP  RH WIND       PRES   REMARKS
EVANSVILLE     CLOUDY    66  59  78 SW20G26   29.65F
HUNTINGBURG *+ CLOUDY    63  57  81 S17G29    29.65F
WASHINGTON +   CLOUDY    64  58  80 MISG      29.59F

$$

INZ062-063-066-070>080-084-089>092-010900-
SOUTH CENTRAL AND SOUTHEAST INDIANA

CITY           SKY/WX    TMP DP  RH WIND       PRES   REMARKS
BLOOMINGTON    CLOUDY    65  54  67 S16G26    29.58F
MADISON *+     CLOUDY    59  54  82 W12G17    29.71R
NORTH VERNON + RAIN     N/A N/A N/A S23G31    29.64F

$$




USA.gov is the U.S. government's official web portal to all federal, state and local government web resources and services.